| time (UTC) | temp C | wind direction | speed KPH | gust KPH | rain 1hr cm | rain 24hr cm | rain mn cm | humidity % | barometer mb |
| 20260508060051 | 6 | 0 | 0.0 | 8.0 | 0.00 | 0.00 | 0.00 | 59 | 1006.8 |
| 20260508054550 | 6 | 0 | 1.6 | 6.4 | 0.00 | 0.05 | 0.00 | 59 | 1007.0 |
| 20260508053115 | 6 | 360 | 0.0 | 3.2 | 0.00 | 0.05 | 0.00 | 59 | 1007.1 |
| 20260508051554 | 6 | 0 | 0.0 | 3.2 | 0.00 | 0.05 | 0.00 | 59 | 1007.2 |
| 20260508050055 | 7 | 0 | 0.0 | 4.8 | 0.00 | 0.05 | 0.00 | 57 | 1007.3 |
| 20260508044555 | 7 | 360 | 0.0 | 3.2 | 0.00 | 0.15 | 0.00 | 56 | 1007.3 |
| 20260508043054 | 7 | 0 | 0.0 | 1.6 | 0.00 | 0.15 | 0.00 | 54 | 1007.5 |
| 20260508041613 | 7 | 0 | 0.0 | 3.2 | 0.00 | 0.15 | 0.00 | 53 | 1007.5 |
| 20260508040107 | 8 | 360 | 0.0 | 3.2 | 0.00 | 0.15 | 0.00 | 52 | 1007.4 |
| 20260508034551 | 8 | 360 | 0.0 | 3.2 | 0.00 | 0.15 | 0.15 | 50 | 1007.4 |
| 20260508033053 | 8 | 0 | 0.0 | 0.0 | 0.00 | 0.15 | 0.15 | 49 | 1007.5 |
| 20260508031551 | 8 | 360 | 1.6 | 4.8 | 0.00 | 0.15 | 0.15 | 48 | 1007.4 |
| 20260508030051 | 9 | 360 | 0.0 | 1.6 | 0.00 | 0.15 | 0.15 | 46 | 1007.7 |
| 20260508024603 | 9 | 0 | 0.0 | 4.8 | 0.00 | 0.15 | 0.15 | 48 | 1007.6 |
| 20260508023052 | 10 | 310 | 0.0 | 6.4 | 0.00 | 0.15 | 0.15 | 45 | 1007.3 |
| 20260508021555 | 10 | 0 | 0.0 | 6.4 | 0.00 | 0.15 | 0.15 | 45 | 1007.2 |
| 20260508020053 | 10 | 0 | 1.6 | 6.4 | 0.00 | 0.15 | 0.15 | 44 | 1007.2 |
| 20260508014548 | 11 | 0 | 0.0 | 6.4 | 0.00 | 0.20 | 0.15 | 43 | 1006.9 |
| 20260508013052 | 11 | 360 | 3.2 | 14.5 | 0.00 | 0.20 | 0.15 | 41 | 1006.8 |
| 20260508011556 | 11 | 0 | 1.6 | 9.7 | 0.00 | 0.20 | 0.15 | 42 | 1006.4 |
| 20260508010050 | 11 | 0 | 0.0 | 6.4 | 0.00 | 0.20 | 0.15 | 41 | 1006.3 |
| 20260508004555 | 12 | 0 | 0.0 | 8.0 | 0.00 | 0.20 | 0.15 | 41 | 1006.1 |
| 20260508003048 | 12 | 0 | 0.0 | 6.4 | 0.00 | 0.20 | 0.15 | 37 | 1005.6 |
| 20260508001550 | 13 | 0 | 1.6 | 12.9 | 0.00 | 0.20 | 0.15 | 36 | 1005.3 |
| 20260508000056 | 13 | 360 | 0.0 | 8.0 | 0.00 | 0.20 | 0.15 | 37 | 1005.2 |
| 20260507234551 | 13 | 360 | 3.2 | 9.7 | 0.00 | 0.20 | 0.15 | 36 | 1005.1 |
| 20260507233101 | 14 | 0 | 1.6 | 9.7 | 0.00 | 0.20 | 0.15 | 36 | 1004.9 |
| 20260507231556 | 14 | 360 | 1.6 | 6.4 | 0.00 | 0.20 | 0.15 | 35 | 1004.8 |
| 20260507230059 | 15 | 360 | 3.2 | 9.7 | 0.00 | 0.20 | 0.15 | 34 | 1004.6 |
| 20260507224559 | 15 | 360 | 4.8 | 17.7 | 0.00 | 0.20 | 0.15 | 33 | 1004.5 |
| 20260507223053 | 16 | 360 | 6.4 | 24.1 | 0.00 | 0.20 | 0.15 | 32 | 1004.4 |
| 20260507221551 | 16 | 360 | 1.6 | 12.9 | 0.00 | 0.20 | 0.15 | 35 | 1004.1 |
| 20260507220050 | 16 | 360 | 4.8 | 17.7 | 0.00 | 0.20 | 0.15 | 32 | 1004.0 |
| 20260507214603 | 16 | 360 | 6.4 | 19.3 | 0.00 | 0.30 | 0.15 | 32 | 1003.9 |
| 20260507213103 | 16 | 360 | 1.6 | 14.5 | 0.00 | 0.30 | 0.15 | 32 | 1004.0 |
| 20260507211551 | 16 | 360 | 4.8 | 19.3 | 0.00 | 0.30 | 0.15 | 32 | 1003.9 |
| 20260507210051 | 16 | 360 | 4.8 | 20.9 | 0.00 | 0.30 | 0.15 | 34 | 1003.8 |
| 20260507204550 | 16 | 360 | 8.0 | 22.5 | 0.00 | 0.38 | 0.15 | 32 | 1003.7 |
| 20260507203058 | 16 | 360 | 4.8 | 14.5 | 0.00 | 0.38 | 0.15 | 34 | 1003.7 |
| 20260507201555 | 17 | 360 | 1.6 | 19.3 | 0.00 | 0.38 | 0.15 | 34 | 1003.8 |
| 20260507200057 | 17 | 360 | 3.2 | 20.9 | 0.00 | 0.38 | 0.15 | 36 | 1003.7 |
| 20260507194618 | 17 | 360 | 6.4 | 20.9 | 0.00 | 0.61 | 0.15 | 35 | 1003.9 |
| 20260507193056 | 17 | 360 | 8.0 | 19.3 | 0.00 | 0.61 | 0.15 | 36 | 1003.7 |
| 20260507191556 | 16 | 360 | 4.8 | 17.7 | 0.00 | 0.61 | 0.15 | 35 | 1003.9 |
| 20260507190056 | 17 | 360 | 8.0 | 25.7 | 0.00 | 0.61 | 0.15 | 35 | 1004.0 |
| 20260507184556 | 17 | 360 | 4.8 | 25.7 | 0.00 | 0.61 | 0.15 | 37 | 1003.9 |
| 20260507183051 | 17 | 360 | 9.7 | 27.4 | 0.00 | 0.61 | 0.15 | 39 | 1004.0 |
| 20260507181558 | 17 | 360 | 8.0 | 27.4 | 0.00 | 0.61 | 0.15 | 43 | 1004.1 |
| 20260507180055 | 17 | 360 | 8.0 | 27.4 | 0.00 | 0.61 | 0.15 | 40 | 1004.3 |
| 20260507174600 | 17 | 360 | 6.4 | 30.6 | 0.00 | 0.61 | 0.15 | 44 | 1004.4 |
| 20260507173135 | 16 | 360 | 8.0 | 25.7 | 0.00 | 0.61 | 0.15 | 46 | 1004.6 |
| 20260507171610 | 16 | 360 | 6.4 | 25.7 | 0.00 | 0.61 | 0.15 | 45 | 1004.6 |
| 20260507170111 | 17 | 360 | 14.5 | 33.8 | 0.00 | 0.61 | 0.15 | 45 | 1004.7 |
| 20260507164558 | 17 | 360 | 6.4 | 17.7 | 0.00 | 0.61 | 0.15 | 49 | 1004.9 |
| 20260507163055 | 17 | 360 | 9.7 | 30.6 | 0.00 | 0.61 | 0.15 | 49 | 1005.0 |
| 20260507161606 | 16 | 360 | 8.0 | 22.5 | 0.00 | 0.61 | 0.15 | 50 | 1005.2 |
| 20260507160052 | 16 | 360 | 4.8 | 19.3 | 0.00 | 0.61 | 0.15 | 48 | 1005.3 |
| 20260507154554 | 16 | 360 | 4.8 | 14.5 | 0.00 | 0.61 | 0.15 | 52 | 1005.5 |
| 20260507153057 | 16 | 360 | 4.8 | 14.5 | 0.00 | 0.61 | 0.15 | 52 | 1005.7 |
| 20260507151556 | 16 | 0 | 3.2 | 16.1 | 0.00 | 0.61 | 0.15 | 48 | 1005.7 |
| 20260507150100 | 16 | 360 | 3.2 | 12.9 | 0.00 | 0.61 | 0.15 | 50 | 1005.7 |
| 20260507144600 | 15 | 360 | 3.2 | 12.9 | 0.00 | 0.61 | 0.15 | 55 | 1005.8 |
| 20260507143119 | 14 | 360 | 6.4 | 16.1 | 0.00 | 0.61 | 0.15 | 56 | 1005.8 |
| 20260507141628 | 14 | 360 | 0.0 | 6.4 | 0.00 | 0.61 | 0.15 | 62 | 1006.0 |
| 20260507140055 | 13 | 0 | 1.6 | 12.9 | 0.00 | 0.61 | 0.15 | 62 | 1006.2 |
| 20260507134602 | 13 | 0 | 0.0 | 8.0 | 0.00 | 0.61 | 0.15 | 63 | 1006.2 |
| 20260507133056 | 13 | 360 | 4.8 | 12.9 | 0.00 | 0.61 | 0.15 | 64 | 1006.2 |
| 20260507131551 | 13 | 360 | 3.2 | 8.0 | 0.00 | 0.61 | 0.15 | 65 | 1006.5 |
| 20260507130053 | 12 | 360 | 3.2 | 9.7 | 0.00 | 0.61 | 0.15 | 68 | 1006.5 |
| 20260507124552 | 11 | 360 | 3.2 | 9.7 | 0.00 | 0.61 | 0.15 | 72 | 1006.5 |
| 20260507123053 | 10 | 360 | 3.2 | 16.1 | 0.00 | 0.61 | 0.15 | 75 | 1006.5 |
| 20260507121550 | 9 | 360 | 1.6 | 14.5 | 0.00 | 0.61 | 0.15 | 80 | 1006.6 |
| 20260507120059 | 8 | 360 | 0.0 | 6.4 | 0.00 | 0.61 | 0.15 | 84 | 1006.4 |
| 20260507114553 | 8 | 360 | 1.6 | 6.4 | 0.00 | 0.61 | 0.15 | 87 | 1006.5 |
| 20260507113054 | 8 | 0 | 0.0 | 6.4 | 0.00 | 0.61 | 0.15 | 86 | 1006.5 |
| 20260507111556 | 8 | 360 | 3.2 | 8.0 | 0.00 | 0.61 | 0.15 | 87 | 1006.5 |
| 20260507104550 | 8 | 360 | 0.0 | 4.8 | 0.00 | 0.61 | 0.15 | 88 | 1006.6 |
| 20260507103050 | 8 | 360 | 0.0 | 3.2 | 0.00 | 0.61 | 0.15 | 88 | 1006.6 |
| 20260507101558 | 8 | 360 | 0.0 | 4.8 | 0.00 | 0.61 | 0.15 | 88 | 1007.0 |
| 20260507100054 | 8 | 0 | 0.0 | 1.6 | 0.00 | 0.61 | 0.15 | 88 | 1006.6 |
| 20260507094557 | 8 | 0 | 0.0 | 1.6 | 0.00 | 0.61 | 0.15 | 87 | 1006.5 |
| 20260507093052 | 8 | 360 | 0.0 | 4.8 | 0.00 | 0.61 | 0.15 | 87 | 1006.4 |
| 20260507091554 | 8 | 0 | 0.0 | 6.4 | 0.00 | 0.61 | 0.15 | 87 | 1005.8 |
| 20260507090056 | 8 | 360 | 1.6 | 4.8 | 0.00 | 0.61 | 0.15 | 87 | 1006.1 |
| 20260507084553 | 8 | 0 | 1.6 | 9.7 | 0.00 | 0.61 | 0.15 | 87 | 1006.0 |
| 20260507083056 | 8 | 360 | 3.2 | 9.7 | 0.00 | 0.61 | 0.15 | 87 | 1006.2 |
| 20260507081559 | 8 | 360 | 1.6 | 12.9 | 0.00 | 0.61 | 0.15 | 89 | 1005.5 |
| 20260507080059 | 9 | 0 | 1.6 | 9.7 | 0.00 | 0.61 | 0.15 | 90 | 1005.9 |
| 20260507074556 | 9 | 360 | 1.6 | 9.7 | 0.00 | 0.61 | 0.15 | 91 | 1005.9 |
| 20260507073130 | 9 | 360 | 1.6 | 8.0 | 0.00 | 0.61 | 0.15 | 92 | 1005.8 |
| 20260507071552 | 9 | 360 | 0.0 | 4.8 | 0.00 | 0.61 | 0.15 | 92 | 1005.4 |
| 20260507070055 | 10 | 0 | 0.0 | 1.6 | 0.00 | 0.61 | 0.15 | 92 | 1005.5 |
| 20260507064608 | 10 | 0 | 0.0 | 1.6 | 0.03 | 0.61 | 0.15 | 92 | 1005.5 |
| 20260507063102 | 10 | 0 | 0.0 | 1.6 | 0.03 | 0.61 | 0.15 | 92 | 1005.1 |
| 20260507061554 | 10 | 360 | 0.0 | 3.2 | 0.03 | 0.61 | 0.15 | 92 | 1005.2 |